Total_Precipitation_Accumulation
0.94 0.67 0.61 0.57 0.46 0.33 0.28 0.20 0.12 0.09 0.09 0.09 0.09 0.08 0.06 0.04 0.03 0.02 0.06 0.01 0.02 0.03 0.00 0.00 0.00 0.00 0.01 0.02 0.02 0.03 0.03 0.05 0.09 0.16 0.24 0.16 0.13 0.07 0.05 0.01 0.01 0.05 0.11 0.13 0.21 0.23 0.15 0.09 0.10 0.15 0.17 0.15 0.08 0.02
0.75 0.66 0.56 0.47 0.41 0.32 0.20 0.10 0.06 0.05 0.04 0.03 0.02 0.01 0.00 0.00 0.00 0.00 0.02 0.00 0.00 0.00 0.00 0.00 0.00 0.00 0.00 0.00 0.01 0.01 0.02 0.05 0.16 0.22 0.23 0.26 0.27 0.18 0.19 0.11 0.06 0.12 0.19 0.30 0.35 0.24 0.19 0.21 0.21 0.12 0.04 0.01 0.00 0.00
0.78 0.60 0.44 0.33 0.30 0.22 0.11 0.05 0.02 0.00 0.00 0.00 0.00 0.00 0.00 0.00 0.00 0.00 0.00 0.00 0.00 0.00 0.00 0.00 0.00 0.00 0.00 0.00 0.00 0.00 0.00 0.00 0.02 0.08 0.07 0.11 0.08 0.04 0.06 0.07 0.07 0.05 0.05 0.15 0.09 0.03 0.02 0.01 0.02 0.05 0.06 0.04 0.02 0.01
0.54 0.41 0.30 0.21 0.16 0.09 0.04 0.02 0.00 0.00 0.00 0.00 0.00 0.00 0.00 0.00 0.00 0.00 0.00 0.01 0.00 0.00 0.00 0.00 0.00 0.00 0.00 0.00 0.00 0.00 0.00 0.00 0.00 0.02 0.04 0.05 0.04 0.02 0.02 0.03 0.01 0.02 0.04 0.09 0.07 0.01 0.01 0.00 0.01 0.01 0.03 0.02 0.01 0.00
0.24 0.16 0.09 0.05 0.03 0.02 0.01 0.00 0.00 0.00 0.00 0.00 0.00 0.00 0.00 0.00 0.00 0.00 0.00 0.01 0.00 0.01 0.03 0.01 0.00 0.00 0.00 0.00 0.00 0.00 0.00 0.00 0.00 0.00 0.01 0.01 0.00 0.02 0.00 0.00 0.00 0.00 0.01 0.03 0.02 0.01 0.05 0.01 0.00 0.01 0.01 0.00 0.00 0.00
0.06 0.05 0.02 0.02 0.01 0.00 0.01 0.00 0.00 0.00 0.00 0.00 0.00 0.00 0.00 0.00 0.00 0.00 0.00 0.01 0.00 0.01 0.03 0.01 0.00 0.00 0.00 0.00 0.00 0.00 0.00 0.00 0.01 0.02 0.02 0.01 0.00 0.03 0.02 0.00 0.00 0.00 0.01 0.01 0.01 0.00 0.00 0.00 0.01 0.00 0.00 0.00 0.00 0.00
0.04 0.09 0.08 0.03 0.01 0.01 0.02 0.01 0.01 0.01 0.00 0.00 0.00 0.00 0.00 0.00 0.00 0.01 0.01 0.05 0.01 0.04 0.05 0.02 0.00 0.00 0.00 0.00 0.01 0.01 0.00 0.00 0.02 0.05 0.04 0.01 0.02 0.12 0.05 0.02 0.00 0.00 0.00 0.00 0.00 0.00 0.00 0.00 0.00 0.00 0.00 0.00 0.00 0.00
0.03 0.10 0.15 0.11 0.03 0.03 0.03 0.02 0.03 0.08 0.04 0.00 0.00 0.00 0.00 0.00 0.00 0.00 0.00 0.00 0.01 0.04 0.05 0.03 0.00 0.00 0.00 0.01 0.03 0.07 0.07 0.04 0.02 0.02 0.02 0.02 0.05 0.09 0.07 0.00 0.00 0.00 0.00 0.00 0.00 0.01 0.01 0.01 0.01 0.01 0.01 0.01 0.01 0.00
0.04 0.08 0.14 0.16 0.12 0.08 0.05 0.06 0.02 0.03 0.04 0.01 0.00 0.00 0.00 0.00 0.00 0.00 0.00 0.00 0.03 0.05 0.04 0.02 0.01 0.01 0.04 0.08 0.11 0.14 0.17 0.16 0.06 0.03 0.01 0.06 0.09 0.09 0.01 0.00 0.00 0.00 0.00 0.01 0.03 0.03 0.03 0.04 0.03 0.01 0.01 0.01 0.00 0.00
0.05 0.07 0.10 0.15 0.14 0.10 0.04 0.05 0.02 0.01 0.01 0.01 0.00 0.01 0.01 0.01 0.00 0.00 0.01 0.02 0.03 0.03 0.03 0.01 0.00 0.00 0.02 0.05 0.09 0.18 0.24 0.17 0.14 0.06 0.04 0.10 0.03 0.00 0.00 0.00 0.00 0.00 0.00 0.00 0.00 0.00 0.01 0.02 0.03 0.02 0.01 0.01 0.02 0.01
0.04 0.04 0.07 0.13 0.15 0.12 0.05 0.03 0.01 0.01 0.02 0.03 0.02 0.02 0.06 0.01 0.01 0.04 0.05 0.02 0.02 0.02 0.01 0.00 0.00 0.00 0.00 0.00 0.01 0.02 0.05 0.17 0.22 0.14 0.18 0.19 0.14 0.22 0.15 0.14 0.10 0.08 0.05 0.04 0.02 0.01 0.00 0.01 0.00 0.00 0.01 0.01 0.01 0.00
0.01 0.02 0.06 0.09 0.14 0.18 0.09 0.04 0.01 0.01 0.01 0.02 0.06 0.11 0.10 0.03 0.05 0.04 0.02 0.02 0.04 0.02 0.00 0.02 0.02 0.04 0.03 0.03 0.03 0.02 0.07 0.10 0.08 0.21 0.40 0.21 0.23 0.39 0.25 0.15 0.04 0.00 0.00 0.00 0.00 0.00 0.00 0.00 0.00 0.00 0.00 0.00 0.00 0.01
0.01 0.02 0.06 0.08 0.13 0.18 0.09 0.02 0.01 0.03 0.05 0.06 0.04 0.03 0.02 0.02 0.03 0.05 0.01 0.00 0.01 0.03 0.04 0.06 0.15 0.17 0.09 0.14 0.12 0.05 0.15 0.11 0.07 0.09 0.05 0.06 0.15 0.07 0.01 0.00 0.01 0.00 0.00 0.00 0.00 0.01 0.02 0.02 0.03 0.03 0.03 0.04 0.05 0.05
0.00 0.00 0.01 0.02 0.05 0.06 0.02 0.00 0.00 0.02 0.09 0.08 0.02 0.01 0.02 0.03 0.01 0.01 0.03 0.04 0.06 0.05 0.11 0.20 0.33 0.31 0.26 0.40 0.25 0.11 0.06 0.08 0.06 0.04 0.07 0.17 0.17 0.11 0.07 0.05 0.03 0.00 0.00 0.01 0.03 0.06 0.08 0.07 0.04 0.03 0.04 0.06 0.09 0.14
0.00 0.00 0.01 0.02 0.02 0.02 0.01 0.00 0.00 0.02 0.08 0.05 0.06 0.02 0.01 0.02 0.03 0.05 0.05 0.09 0.11 0.31 0.62 0.56 0.31 0.15 0.14 0.17 0.18 0.09 0.07 0.05 0.04 0.09 0.27 0.32 0.19 0.11 0.04 0.00 0.00 0.00 0.00 0.02 0.02 0.03 0.02 0.01 0.01 0.02 0.03 0.03 0.04 0.05
0.00 0.00 0.00 0.01 0.01 0.01 0.01 0.00 0.01 0.07 0.06 0.05 0.02 0.01 0.02 0.03 0.08 0.15 0.18 0.14 0.08 0.32 0.33 0.45 0.43 0.41 0.12 0.06 0.07 0.04 0.04 0.04 0.18 0.29 0.31 0.18 0.06 0.01 0.00 0.00 0.00 0.00 0.01 0.01 0.01 0.01 0.00 0.00 0.01 0.02 0.02 0.02 0.02 0.01
0.00 0.00 0.00 0.00 0.02 0.02 0.02 0.04 0.02 0.04 0.01 0.01 0.00 0.01 0.00 0.01 0.03 0.06 0.07 0.06 0.10 0.14 0.06 0.11 0.20 0.37 0.37 0.24 0.19 0.21 0.23 0.30 0.36 0.26 0.07 0.00 0.00 0.00 0.00 0.00 0.00 0.00 0.02 0.03 0.02 0.02 0.03 0.03 0.04 0.05 0.05 0.06 0.04 0.03
0.00 0.00 0.00 0.00 0.01 0.03 0.04 0.04 0.02 0.02 0.01 0.00 0.00 0.01 0.02 0.02 0.02 0.01 0.01 0.03 0.08 0.08 0.09 0.15 0.14 0.10 0.12 0.17 0.27 0.36 0.30 0.20 0.08 0.01 0.00 0.00 0.00 0.00 0.00 0.00 0.01 0.01 0.03 0.05 0.06 0.06 0.08 0.09 0.08 0.08 0.08 0.09 0.08 0.07
0.04 0.04 0.05 0.01 0.02 0.02 0.04 0.05 0.02 0.02 0.01 0.01 0.01 0.02 0.02 0.01 0.00 0.00 0.01 0.01 0.03 0.04 0.04 0.04 0.05 0.04 0.08 0.08 0.05 0.02 0.01 0.01 0.01 0.00 0.00 0.00 0.00 0.00 0.00 0.01 0.03 0.06 0.06 0.08 0.10 0.11 0.13 0.13 0.12 0.12 0.12 0.12 0.12 0.13
0.07 0.16 0.21 0.14 0.06 0.07 0.05 0.07 0.04 0.03 0.00 0.01 0.01 0.01 0.01 0.00 0.00 0.00 0.00 0.00 0.01 0.06 0.09 0.08 0.06 0.06 0.03 0.04 0.03 0.02 0.02 0.01 0.01 0.02 0.01 0.03 0.01 0.01 0.02 0.04 0.08 0.08 0.09 0.11 0.13 0.13 0.12 0.12 0.14 0.15 0.14 0.13 0.12 0.13
0.03 0.05 0.12 0.38 0.23 0.16 0.18 0.21 0.18 0.07 0.06 0.03 0.03 0.04 0.02 0.01 0.00 0.01 0.02 0.03 0.12 0.14 0.16 0.17 0.13 0.08 0.09 0.13 0.04 0.01 0.00 0.01 0.02 0.08 0.09 0.08 0.02 0.03 0.05 0.08 0.09 0.10 0.11 0.13 0.14 0.15 0.14 0.15 0.17 0.17 0.16 0.17 0.12 0.09
0.05 0.02 0.06 0.13 0.17 0.12 0.09 0.04 0.07 0.07 0.09 0.03 0.03 0.06 0.05 0.06 0.06 0.06 0.08 0.17 0.27 0.12 0.07 0.09 0.07 0.06 0.07 0.07 0.03 0.01 0.01 0.01 0.02 0.04 0.04 0.05 0.06 0.08 0.10 0.11 0.14 0.15 0.15 0.15 0.13 0.13 0.14 0.14 0.14 0.14 0.12 0.13 0.10 0.10
0.21 0.23 0.21 0.08 0.10 0.09 0.05 0.03 0.05 0.02 0.04 0.03 0.04 0.06 0.07 0.12 0.09 0.04 0.05 0.06 0.05 0.02 0.03 0.03 0.02 0.02 0.02 0.06 0.03 0.00 0.01 0.03 0.06 0.05 0.06 0.09 0.09 0.11 0.13 0.16 0.16 0.15 0.16 0.18 0.16 0.14 0.13 0.12 0.11 0.10 0.10 0.11 0.11 0.10
0.05 0.14 0.09 0.04 0.08 0.08 0.04 0.02 0.01 0.01 0.02 0.02 0.02 0.02 0.03 0.05 0.01 0.02 0.08 0.07 0.04 0.01 0.00 0.00 0.00 0.00 0.01 0.03 0.03 0.01 0.01 0.03 0.05 0.05 0.08 0.10 0.08 0.12 0.14 0.17 0.18 0.21 0.20 0.19 0.16 0.15 0.15 0.13 0.12 0.11 0.10 0.10 0.10 0.08
0.00 0.00 0.00 0.00 0.00 0.00 0.00 0.00 0.00 0.00 0.00 0.00 0.00 0.00 0.01 0.01 0.01 0.02 0.05 0.07 0.04 0.01 0.00 0.00 0.00 0.00 0.03 0.02 0.02 0.01 0.00 0.02 0.05 0.07 0.06 0.09 0.11 0.11 0.10 0.12 0.14 0.14 0.17 0.15 0.14 0.13 0.14 0.12 0.10 0.09 0.08 0.07 0.07 0.07
0.00 0.00 0.00 0.00 0.00 0.00 0.00 0.00 0.00 0.00 0.00 0.00 0.00 0.00 0.00 0.00 0.00 0.03 0.03 0.03 0.03 0.01 0.01 0.01 0.01 0.00 0.01 0.01 0.01 0.01 0.01 0.01 0.04 0.06 0.04 0.06 0.08 0.12 0.10 0.08 0.10 0.12 0.12 0.15 0.10 0.10 0.11 0.10 0.09 0.09 0.08 0.08 0.08 0.07
0.00 0.00 0.00 0.00 0.00 0.00 0.00 0.00 0.00 0.00 0.00 0.00 0.00 0.00 0.00 0.01 0.03 0.03 0.02 0.00 0.01 0.00 0.00 0.00 0.01 0.01 0.02 0.02 0.01 0.01 0.02 0.02 0.02 0.04 0.06 0.05 0.06 0.09 0.12 0.13 0.10 0.13 0.12 0.12 0.11 0.10 0.09 0.09 0.09 0.09 0.08 0.08 0.08 0.06
0.00 0.00 0.00 0.00 0.00 0.00 0.00 0.00 0.00 0.00 0.00 0.00 0.00 0.00 0.00 0.01 0.03 0.01 0.00 0.00 0.00 0.00 0.00 0.00 0.02 0.02 0.01 0.01 0.02 0.01 0.02 0.02 0.03 0.07 0.07 0.04 0.04 0.06 0.08 0.09 0.09 0.09 0.09 0.11 0.10 0.09 0.08 0.07 0.07 0.06 0.06 0.05 0.06 0.05
0.00 0.00 0.00 0.00 0.00 0.00 0.00 0.00 0.00 0.00 0.00 0.00 0.00 0.00 0.00 0.00 0.00 0.00 0.00 0.00 0.00 0.01 0.01 0.01 0.04 0.01 0.03 0.07 0.08 0.01 0.01 0.01 0.02 0.05 0.09 0.11 0.04 0.06 0.07 0.06 0.06 0.06 0.06 0.07 0.08 0.08 0.06 0.05 0.05 0.05 0.05 0.05 0.05 0.03
0.00 0.00 0.00 0.00 0.00 0.00 0.00 0.00 0.01 0.01 0.00 0.00 0.00 0.00 0.00 0.02 0.01 0.00 0.00 0.00 0.00 0.01 0.01 0.01 0.02 0.01 0.02 0.02 0.09 0.05 0.01 0.00 0.01 0.03 0.07 0.09 0.07 0.05 0.05 0.04 0.03 0.03 0.03 0.03 0.04 0.07 0.06 0.05 0.05 0.04 0.03 0.03 0.02 0.01
0.00 0.00 0.00 0.00 0.00 0.00 0.01 0.00 0.00 0.00 0.00 0.00 0.00 0.00 0.01 0.03 0.01 0.00 0.00 0.00 0.00 0.01 0.01 0.01 0.02 0.01 0.00 0.01 0.01 0.03 0.05 0.01 0.00 0.01 0.04 0.05 0.03 0.02 0.02 0.04 0.04 0.02 0.01 0.01 0.02 0.02 0.03 0.04 0.03 0.03 0.02 0.01 0.00 0.00
0.00 0.00 0.00 0.00 0.00 0.01 0.00 0.00 0.00 0.00 0.01 0.01 0.01 0.01 0.01 0.01 0.02 0.04 0.01 0.00 0.01 0.02 0.01 0.00 0.01 0.02 0.00 0.01 0.01 0.01 0.01 0.01 0.01 0.01 0.01 0.03 0.02 0.02 0.02 0.02 0.03 0.03 0.02 0.02 0.02 0.03 0.02 0.01 0.01 0.01 0.00 0.00 0.00 0.00
0.00 0.00 0.00 0.00 0.00 0.00 0.01 0.00 0.00 0.00 0.00 0.01 0.02 0.02 0.01 0.00 0.01 0.02 0.01 0.00 0.00 0.00 0.01 0.01 0.01 0.01 0.00 0.00 0.01 0.01 0.01 0.00 0.00 0.00 0.00 0.01 0.01 0.02 0.02 0.02 0.02 0.03 0.03 0.03 0.03 0.03 0.02 0.01 0.00 0.00 0.00 0.00 0.00 0.00